Location: Unspecified
(58.7730°N, 5.8460°E)
Time: 07:32:58
(UTC+01:00)

Okean 3 - Visible Passes

Search period start: 28 January 2015 00:00
Search period end: 07 February 2015 00:00
Orbit: 582 x 606 km, 82.5° (Epoch: 27 January)

Date Brightness Start Highest point End Pass type
(mag) Time Alt. Az. Time Alt. Az. Time Alt. Az.
28 Jan 4.6 18:08:04 10° N 18:11:33 23° ENE 18:15:04 10° ESE visible
28 Jan 3.7 19:45:04 10° NNW 19:49:25 69° W 19:52:58 15° S visible
28 Jan 6.6 21:24:04 10° NW 21:26:02 13° W 21:27:51 10° WSW visible
29 Jan 4.3 18:17:33 10° N 18:21:24 30° ENE 18:25:15 10° SE visible
29 Jan 4.4 19:54:48 10° NNW 19:59:01 50° W 20:03:12 10° S visible
30 Jan 7.0 06:58:17 10° E 06:58:50 10° ENE 06:59:35 10° ENE visible
30 Jan 3.9 18:27:06 10° N 18:31:12 39° ENE 18:35:17 10° SE visible
30 Jan 5.0 20:04:34 10° NNW 20:08:35 36° W 20:12:32 10° SSW visible
31 Jan 6.6 07:06:03 10° ESE 07:08:15 14° E 07:10:36 10° NE visible
31 Jan 3.6 18:36:41 10° N 18:40:57 52° ENE 18:45:11 10° SSE visible
31 Jan 5.6 20:14:25 10° NNW 20:18:07 27° W 20:21:44 10° SW visible
01 Feb 6.5 07:14:43 10° SE 07:17:42 19° E 07:20:48 10° NE visible
01 Feb 3.4 18:46:18 10° N 18:50:40 72° ENE 18:54:58 10° SSE visible
01 Feb 6.1 20:24:23 10° NW 20:27:37 20° W 20:30:44 10° SW visible
02 Feb 6.1 07:23:40 10° SE 07:27:11 25° E 07:30:47 10° NNE visible
02 Feb 3.5 18:55:57 10° NNW 19:00:19 84° WSW 19:04:37 10° S visible
02 Feb 6.6 20:34:30 10° NW 20:37:04 15° W 20:39:29 10° WSW visible
03 Feb 5.5 07:32:49 10° SSE 07:36:42 33° E 07:40:39 10° NNE visible
03 Feb 4.1 19:05:38 10° NNW 19:09:56 61° W 19:14:10 10° S visible
03 Feb 6.9 20:45:06 10° WNW 20:46:29 11° WNW 20:47:40 10° W visible
04 Feb 4.8 07:42:07 10° SSE 07:46:15 46° E 07:50:26 10° NNE visible
04 Feb 4.7 19:15:23 10° NNW 19:19:31 44° W 19:23:36 10° SSW visible
05 Feb 6.9 06:17:49 10° E 06:19:16 12° ENE 06:20:53 10° ENE visible
05 Feb 4.2 07:51:33 10° S 07:55:50 63° E 08:00:09 10° NNE visible
05 Feb 3.8 17:47:35 10° N 17:51:45 43° ENE 17:55:53 10° SE visible
05 Feb 5.4 19:25:10 10° NNW 19:29:03 32° W 19:32:52 10° SSW visible
06 Feb 6.7 06:26:08 10° ESE 06:28:41 16° E 06:31:22 10° NE visible
06 Feb 3.5 17:57:10 10° N 18:01:29 59° ENE 18:05:44 10° SSE visible
06 Feb 6.0 19:35:02 10° NNW 19:38:34 24° W 19:41:59 10° SW visible
